User: anonymous   Login
Location: Unspecified
(0.0000°N, 0.0000°E)
Time: 11:37:40
(UTC+00:00)
Language:

CANX 3B (BRITE-ASRA) - Orbit

View from above orbital plane
View from above orbital plane
View from above satellite
View from above satellite

Ground track
Ground track

The orbit data is extracted from the following two-line orbital elements,

1 39091U 13009F   18170.55100909 -.00000011  00000-0  11422-4 0  9998
2 39091  98.5187  16.1831 0009488 301.8015  58.2246 14.35074877278188
Epoch (UTC): 19 June 2018 13:13:27
Eccentricity: 0.0009488
inclination: 98.5187°
perigee height: 768 km
apogee height: 781 km
right ascension of ascending node: 16.1831°
argument of perigee: 301.8015°
revolutions per day: 14.35074877
mean anomaly at epoch: 58.2246°
orbit number at epoch: 27818

The dashed part of the orbit path shows where the satellite is in the earth's shadow,  

DLR